Location: DaVinci Observatory
(43.1080°N, 78.6453°W)
Time: 22:15:55
(UTC-05:00)

Envisat - Pass Details

Date: 13 October 2017
Orbit: 764 x 766 km, 98.2° (Epoch: 17 December)

Event Time Altitude Azimuth Distance (km) Brightness Sun altitude
Exits shadow 20:57:01 73° 16° (NNE) 802 2.9 -26.6°
Drops below altitude 10° 21:01:41 10° 349° (N) 2,314 5.8 -27.5°
Sets 21:04:00 0° 348° (NNW) 3,245 6.6 -27.9°
